Location: Newark
(46.2350°N, 1.5859°E)
Time: 13:11:54
(UTC+00:00)

N. Korean satellite - Visible Passes

Search period start: 23 September 2019 00:00
Search period end: 03 October 2019 00:00
Orbit: 455 x 509 km, 97.2° (Epoch: 22 September)

Date Brightness Start Highest point End Pass type
(mag) Time Alt. Az. Time Alt. Az. Time Alt. Az.
24 Sep 10.0 04:53:37 10° ENE 04:55:25 14° E 04:57:13 10° ESE visible
27 Sep 9.5 05:10:30 10° NE 05:13:14 22° E 05:15:59 10° SSE visible
28 Sep 10.3 04:46:41 10° ENE 04:47:48 11° E 04:48:55 10° ESE visible
29 Sep 10.2 18:05:51 10° WSW 18:07:42 14° W 18:09:32 10° WNW visible
01 Oct 9.8 05:03:08 10° NE 05:05:36 18° E 05:08:05 10° SE visible
